Regional Weather Roundup
Issued by NWS

Home | Current Version | Previous Version | Graphics & Text | Print | Product List | Glossary On
Versions: 1 2 3 4 5 6 7 8 9 10 11 12 13 14 15 16 17 18 19 20 21 22 23 24 25 26 27 28 29 30 31 32 33 34 35 36 37 38 39 40 41 42 43 44 45 46 47 48 49 50
000
ASUS43 KMPX 190710
RWRMN
WEATHER ROUNDUP FOR MINNESOTA
NATIONAL WEATHER SERVICE TWIN CITIES/CHANHASSEN MN
200 AM CDT SUN APR 19 2015


NOTE: "FAIR" INDICATES FEW OR NO CLOUDS BELOW 12,000 FEET WITH NO
SIGNIFICANT WEATHER AND/OR OBSTRUCTIONS TO VISIBILITY. N/A MEANS
CURRENT SKY AND/OR WEATHER CONDITIONS ARE NOT AVAILABLE.

MNZ060>063-068>070-190800-
   Twin Cities Metro

CITY           SKY/WX    TMP DP  RH WIND       PRES   REMARKS
TWIN CITIES    CLOUDY    51  42  71 E13       29.82F
ST PAUL        CLOUDY    51  42  71 SE14      29.84F
CRYSTAL        CLOUDY    52  42  69 E12G20    29.81F
BLAINE         CLOUDY    52  45  76 E14       29.82F
LAKEVILLE      CLOUDY    48  43  81 E12       29.82F
EDEN PRAIRIE   CLOUDY    52  42  69 E17G24    29.80F
SOUTH ST PAUL  CLOUDY    51  41  67 SE9       29.82F
LAKE ELMO      LGT RAIN  48  41  76 E9        29.85F
$$
MNZ001>005-007-008-013>017-022>024-027-028-190800-
   Northwest Minnesota

CITY           SKY/WX    TMP DP  RH WIND       PRES   REMARKS
BEMIDJI        DRIZZLE   45  34  64 SE14      29.86F
HALLOCK        CLOUDY    59  30  33 SW12G18   29.79S
ROSEAU         CLOUDY    52  34  50 S6        29.80F
WARROAD        CLOUDY    50  34  53 SE12      29.82F
THIEF RVR FALL CLOUDY    55  34  44 S6        29.83R
CROOKSTON      LGT RAIN  57  36  44 S7        29.82S
FOSSTON        CLOUDY    52  32  46 SE13G20   29.83S
DETROIT LAKES  LGT RAIN  46  45  93 SE13      29.82F
MOORHEAD       DRIZZLE   52  48  87 S3        29.80F
PARK RAPIDS    LGT RAIN  43  40  89 E7        29.84F
MAHNOMEN       DRIZZLE   51  39  64 SE10      29.82F
$$
MNZ006-009>011-018-025>026-190800-
   North Central Minnesota

CITY           SKY/WX    TMP DP  RH WIND       PRES   REMARKS
BAUDETTE       CLOUDY    48  29  47 SE9       29.85F
FLAG ISLAND    CLOUDY    45  27  49 SE8       29.82F
INTL FALLS     CLOUDY    44  22  41 SE7       29.89F
WASKISH        CLOUDY    46  30  53 CALM      29.85F
BIG FORK       CLOUDY    45  25  45 SE6       29.89F
LONGVILLE      RAIN      39  37  93 CALM      29.87F
GRAND RAPIDS   CLOUDY    39  27  60 SE6       29.90F
ORR            CLOUDY    43  18  36 CALM      29.89F
COOK           CLOUDY    41  21  45 CALM      29.92F
WALKER         RAIN      41  38  91 SE3       29.87F
$$
MNZ012-019>021-037-190800-
   Northeast Minnesota

CITY           SKY/WX    TMP DP  RH WIND       PRES   REMARKS
DULUTH         LGT RAIN  39  31  72 E13       29.94F
ELY            CLOUDY    43  21  42 SE9       29.94F
HIBBING        CLOUDY    41  24  51 SE7       29.92F
EVELETH        CLOUDY    43  25  49 E5        29.95S
DULUTH HARBOR  LGT RAIN  37  36  93 E17       29.99F
TWO HARBORS    CLOUDY    43  30  61 NE7       29.97R
SILVER BAY     CLOUDY    41  27  56 NE9       29.98F
GRAND MARAIS     N/A     41  26  55 NE17G26   30.05F
G MARAIS ARPRT CLOUDY    37  21  52 E8G17     30.03F
$$
MNZ029>031-032-039>041-046>048-054>057-064-190800-
   West Central Minnesota

CITY           SKY/WX    TMP DP  RH WIND       PRES   REMARKS
FERGUS FALLS   LGT RAIN  48  46  93 E13G18    29.78F
WHEATON        DRIZZLE   46  46 100 NE8       29.77F
MORRIS         DRIZZLE   50  48  93 E14       29.73F
ALEXANDRIA     LGT RAIN  46  44  93 E15       29.78F FOG
ELBOW LAKE     LGT RAIN  47  46  95 E17       29.75F
WADENA         MIX PCPN  43  43 100 E7        29.83F
GLENWOOD       DRIZZLE   46  46 100 E13       29.77F
APPLETON       DRIZZLE   55  52  88 S6        29.73F
BENSON         RAIN      54  52  94 S16G25    29.74F
ORTONVILLE     DRIZZLE   52  48  87 CALM      29.73F
MADISON        DRIZZLE   52  50  93 CALM      29.73F
WILLMAR        LGT RAIN  54  54 100 SE15      29.78F
$$
MNZ033>034-036-042>043-049>051-058-059-190800-
   Central Minnesota

CITY           SKY/WX    TMP DP  RH WIND       PRES   REMARKS
ST CLOUD       LGT RAIN  49  45  86 E8        29.81F
SAUK CENTRE    CLOUDY    46  44  93 E10       29.78F
PAYNESVILLE    LGT RAIN  50  49  99 E13G21    29.78F
AITKIN         MIX PCPN  39  34  81 E5        29.86F
PINE RIVER     RAIN      39  37  93 E6        29.89F
BRAINERD       RAIN      41  40  96 NE6       29.85F FOG
STAPLES        RAIN      43  43 100 E5        29.84F
LONG PRAIRIE   CLOUDY    43  41  93 E12       29.79F
LITTLE FALLS   LGT RAIN  45  41  87 E8G16     29.82F
LITCHFIELD     LGT RAIN  54  54 100 SE10      29.80F
BUFFALO        CLOUDY    51  45  79 E7        29.81F
MAPLE LAKE     LGT RAIN  52  49  90 E5        29.82S
$$
MNZ037-044-045-052-053-190800-
   East Central Minnesota

CITY           SKY/WX    TMP DP  RH WIND       PRES   REMARKS
PRINCETON      CLOUDY    48  45  87 E12       29.82F
MORA           LGT RAIN  41  37  87 E6        29.87F
CAMBRIDGE      RAIN      48  39  71 E8G18     29.81F
RUSH CITY      CLOUDY    46  42  87 E10       29.86F
MOOSE LAKE     RAIN      36  34  93 CALM      29.91F
HINCKLEY       RAIN      43  41  93 CALM      29.89F
CLOQUET        RAIN      37  30  75 E5        29.94S
MCGREGOR       CLOUDY    36  34  93 E8        29.90F
$$
MNZ071>073-080-081-089-090-097-098-190800-
   Southwest Minnesota

CITY           SKY/WX    TMP DP  RH WIND       PRES   REMARKS
MONTEVIDEO     DRIZZLE   57  57 100 S9        29.75F
GRANITE FALLS  RAIN      56  55  95 SE16G23   29.76F
CANBY          CLOUDY    56  54  94 S6        29.75S
MARSHALL       CLOUDY    55  50  82 S10       29.75F
REDWOOD FALLS  LGT RAIN  55  53  93 SE15      29.76F FOG
OLIVIA         LGT RAIN  52  50  93 SE13      29.77F
PIPESTONE      RAIN      55  54  94 S10       29.75F
WINDOM         CLOUDY    55  55 100 SE9       29.78F
WORTHINGTON    CLOUDY    54  50  87 S8        29.77F
JACKSON        DRIZZLE   55  54  94 SE9       29.79F
TRACY          CLOUDY    56  55  95 S9        29.76F
SLAYTON        CLOUDY    53  53 100 S10       29.77F
$$
MNZ065>067-074>077-082>085-091>093-190800-
   South Central Minnesota

CITY           SKY/WX    TMP DP  RH WIND       PRES   REMARKS
MANKATO        CLOUDY    55  45  67 SE14      29.79F
NEW ULM        LGT RAIN  54  52  94 S9        29.79F
ST JAMES       RAIN      55  54  94 SE7       29.79F
FAIRMONT       CLOUDY    55  45  67 SE8       29.78F
GLENCOE        LGT RAIN  53  50  89 SE9       29.79F
FARIBAULT      DRIZZLE   54  46  76 E13G18    29.81F
OWATONNA       CLOUDY    54  45  71 SE16      29.80F
ALBERT LEA     CLOUDY    55  52  88 SE14      29.80F
$$
MNZ078>079-086>088-094>096-190800-
   Southeast Minnesota

CITY           SKY/WX    TMP DP  RH WIND       PRES   REMARKS
ROCHESTER      LGT RAIN  51  45  79 SE16      29.85S
RED WING       CLOUDY    52  37  58 SE17      29.85S
STANTON        DRIZZLE   54  39  57 E16G29    29.80F
DODGE CENTER   CLOUDY    52  45  76 SE15        N/A
WINONA         CLOUDY    54  39  58 SE8       29.87F
AUSTIN         CLOUDY    54  46  76 SE18      29.81F
PRESTON        CLOUDY    50  45  81 E8        29.86F
$$
ABBREVIATIONS USED IN REMARKS
   TC - TEMPERATURES IN CELSIUS
  WCI - WIND CHILL INDEX
   HX - HEAT INDEX
  VSB - VISIBILITY
$$


USA.gov is the U.S. government's official web portal to all federal, state and local government web resources and services.